Volver al catálogo

STARLINK-36712

ActivoComunicacionesSSO
NORAD 67700·PAYLOAD·🇺🇸 United States

Lanzado Feb 7, 2026 desde Vandenberg Space Force Base

Loading…

Próximos Pases (próximas 24 horas)

TLE

ActualizadoSource: CelesTrak SupGP

Época: Sep 15, 2026, 03:38 UTC

1 67700C 26025H   26258.15187500  .00012491  00000+0  38783-3 0  2581
2 67700  97.2848   8.1236 0000896  89.0250 350.3511 15.33426589    12

Sigue STARLINK-36712 en tiempo real con AllMySat

Download on the App Store